GFSCGP_850_dewp_096.txt.gz
Dewpoint
1 -2 -0 -1 -1 -1 -1 2 15 16 16 15 16 17 16 15 14 13 11 10 10 12 13 12 13 13 14 12 13 13 11 12 14 13 14 14 13 14 15 15 14 14 13 13
-1 -0 -2 -3 -2 -2 0 5 16 15 15 16 15 17 15 15 15 14 11 10 9 11 12 13 13 14 13 13 12 12 12 12 13 13 13 14 14 15 15 15 14 15 12 13
-0 -1 -3 -2 -1 -3 -3 -1 15 16 13 13 14 17 16 15 14 12 11 10 9 11 11 12 13 13 13 13 12 12 12 13 11 14 14 15 14 14 14 15 15 15 14 14
-2 -3 -2 -1 -1 -4 -3 -3 10 16 15 18 13 17 15 14 15 13 12 12 9 9 10 11 11 12 12 12 12 11 13 13 11 13 14 14 14 14 14 14 14 15 15 14
-2 -3 -3 -2 -3 -7 -5 -5 9 13 13 15 15 15 16 14 16 14 14 13 11 9 9 11 11 11 11 12 11 11 13 13 12 14 15 15 15 14 14 14 15 16 15 14
-4 -6 -6 -5 -6 -7 -8 8 10 12 11 14 15 16 18 16 16 14 13 13 12 12 10 10 11 10 11 12 11 11 11 12 13 12 14 15 14 14 14 14 14 15 16 15
-0 -3 -6 -7 -6 -6 -5 2 9 13 13 12 13 16 15 14 14 14 13 13 14 13 12 11 11 11 11 12 12 11 12 11 12 14 14 13 14 13 15 15 16 14 15 14
2 3 -5 -7 -6 -3 -2 1 6 12 10 9 12 15 14 14 14 13 14 14 14 13 13 13 13 11 11 11 11 11 11 12 10 12 15 14 14 13 13 15 15 14 14 14
3 0 -3 -4 -6 -5 -3 3 -0 5 3 9 15 14 13 14 15 16 15 14 15 14 14 14 13 12 11 11 11 11 11 10 9 9 13 13 14 14 13 14 14 14 14 15
2 3 -1 -2 -5 -0 -2 1 3 3 7 12 15 15 16 14 16 16 15 15 15 16 14 14 14 13 13 13 13 12 12 11 11 10 9 10 14 12 12 14 14 15 15 14
0 1 1 -1 0 2 2 3 2 2 4 13 16 16 15 15 15 16 15 15 15 15 16 16 15 14 14 14 13 13 13 13 12 12 10 9 9 10 10 12 15 15 14 15
-1 1 3 1 -3 -1 1 2 2 4 4 11 13 17 14 14 14 14 14 14 15 16 15 16 16 16 15 15 14 15 14 14 13 12 13 12 12 12 12 12 15 14 14 15
-3 1 5 3 -2 -5 -4 -2 -2 0 5 8 12 16 14 14 14 14 14 14 14 15 15 15 15 16 15 11 14 14 14 15 14 14 13 13 13 13 13 12 12 14 14 15
2 -0 4 5 0 -0 -4 -3 -2 -0 8 10 14 16 15 14 14 13 13 13 13 13 14 14 14 14 15 15 15 13 13 15 15 14 14 13 13 14 14 14 13 13 13 13
-1 1 0 -0 -1 -1 -5 -4 0 6 6 7 15 15 13 13 12 12 12 12 12 12 11 12 13 14 14 15 15 15 14 14 15 14 14 14 14 14 13 13 14 14 14 14
-3 1 -1 2 -1 0 -4 -3 2 6 10 13 14 15 12 12 12 11 11 11 12 12 12 11 10 10 10 11 14 15 15 13 14 13 14 12 12 13 14 14 12 13 15 16
0 -0 2 3 2 -1 -2 -2 -4 5 9 13 15 14 12 12 11 11 11 9 9 8 8 9 10 10 11 10 10 12 13 14 15 14 14 13 11 12 13 14 13 11 12 14
0 2 2 3 3 3 -3 -4 -1 10 11 12 13 12 11 11 10 9 8 8 8 7 7 7 7 7 10 11 9 9 9 11 12 14 14 14 15 13 12 14 15 14 14 13
-4 0 2 2 4 3 1 -1 -2 7 13 12 12 11 10 8 7 7 6 6 6 6 6 6 6 6 7 9 9 9 8 8 8 8 9 9 11 12 14 14 14 14 14 13
-4 -1 1 3 5 3 2 -2 -5 5 13 11 11 9 7 7 8 6 5 5 4 4 6 6 5 5 5 6 7 7 7 6 4 5 5 5 7 7 7 5 6 7 10 12
-1 1 1 1 3 3 2 0 -3 3 7 9 7 6 6 6 6 5 5 4 4 4 4 4 4 4 4 4 4 5 5 4 4 3 0 1 2 2 2 1 1 1 5 7
4 1 2 2 2 2 3 3 6 4 5 7 6 6 6 5 4 3 3 3 3 3 3 3 3 4 4 4 4 4 4 4 3 2 -1 -2 -4 -5 -4 -3 -1 1 6 6
5 4 6 6 6 4 3 3 3 6 7 7 6 6 5 4 3 3 3 3 3 3 3 3 3 3 4 4 3 2 2 1 0 -0 1 0 0 0 0 -2 -1 2 5 6
4 2 5 5 4 4 2 2 2 3 5 6 5 4 4 3 3 3 3 3 3 3 3 3 2 2 2 1 -2 -5 -6 -6 -6 -5 -3 1 2 3 4 5 4 5 6 5
4 3 3 4 4 3 2 1 1 0 1 1 2 3 3 2 2 2 3 3 3 3 2 2 2 1 -1 -1 -2 -3 -4 -5 -6 -6 -6 -5 -4 -3 -1 2 4 4 5 6
5 5 4 4 4 4 2 1 0 -0 -0 -0 -0 1 1 1 2 2 2 2 2 1 1 -0 -1 -0 -1 -1 -3 -5 -5 -6 -6 -6 -8 -8 -8 -8 -7 -7 -6 -3 0 4

GFSCGP_850_dewp_102.txt.gz
Dewpoint
-1 3 5 0 -2 -0 -0 12 16 15 16 16 16 16 14 14 12 13 13 13 13 13 13 13 13 13 13 14 14 14 13 13 13 13 13 14 14 14 13 14 14 14 13 14
-0 4 1 -1 -2 1 5 15 17 16 15 16 16 16 14 15 13 14 12 13 13 13 13 13 13 13 14 14 13 14 14 13 13 13 13 13 14 14 14 14 14 14 13 13
2 1 -2 -2 -1 -1 1 7 16 16 16 16 16 17 16 15 13 13 13 12 12 13 13 13 13 13 13 14 12 13 13 12 14 13 13 13 14 14 14 14 15 14 14 13
0 -1 -2 -2 -0 -0 -0 0 14 15 15 17 14 17 17 15 16 14 12 12 13 13 13 12 13 13 13 13 12 12 12 12 13 13 13 13 13 13 14 14 15 14 14 13
0 -2 -1 -1 -1 -4 -2 -1 13 14 15 13 14 14 14 16 16 16 14 14 12 13 13 13 12 12 13 13 12 12 12 12 13 12 13 13 13 14 14 14 14 15 14 15
-2 -4 -4 -3 -3 -4 0 12 12 12 13 15 13 13 14 16 15 15 13 12 11 13 12 12 12 12 13 13 13 13 12 12 13 12 12 13 14 14 14 14 14 14 15 14
-2 -2 -4 -5 -4 -6 -3 8 14 15 15 15 12 14 12 14 13 14 14 13 11 12 12 13 14 13 13 13 12 13 12 12 13 12 9 12 14 14 13 14 14 14 14 13
2 2 -1 -5 -4 -4 1 4 11 13 14 13 13 15 13 14 14 13 13 13 11 11 12 12 13 13 13 13 12 12 12 12 13 13 11 10 13 14 14 14 14 14 14 14
2 2 -1 -6 -7 -5 -1 4 4 7 5 13 14 13 13 15 14 14 14 14 12 11 11 12 12 13 13 13 13 13 12 12 12 13 13 11 13 13 13 13 14 15 14 14
-1 1 -1 -2 -3 -0 -1 -2 3 3 8 12 14 15 14 16 16 15 16 15 15 13 12 12 11 12 13 13 13 13 13 13 13 13 13 12 12 12 13 14 14 14 14 14
-0 1 1 -1 -1 2 2 2 2 2 6 11 14 14 14 15 16 16 15 15 15 15 14 13 12 12 13 13 12 14 14 13 13 14 14 13 12 12 14 14 14 14 14 15
-2 1 3 2 -2 -2 0 1 1 4 8 10 11 14 14 15 15 15 15 15 15 14 14 14 14 14 13 13 13 14 14 14 13 14 15 14 13 13 13 14 14 13 14 14
-3 1 4 3 -3 -2 -4 -5 0 3 9 12 11 13 15 14 14 14 15 15 15 15 15 15 15 15 15 15 15 16 15 14 14 14 14 13 14 13 11 12 11 13 12 14
-1 1 3 3 0 -0 1 -4 -2 0 4 10 10 15 16 14 13 14 14 14 14 14 15 15 16 16 15 14 15 13 14 15 14 13 14 14 15 14 14 12 12 12 13 13
-2 1 1 -0 -1 -0 -3 -1 -2 0 3 8 10 14 14 13 13 13 13 13 13 14 14 15 15 15 15 13 10 12 12 15 14 15 15 14 14 14 13 13 13 13 12 13
-2 2 0 3 1 -2 -1 3 2 10 9 12 13 15 13 13 12 13 13 12 12 13 13 14 15 15 15 15 15 15 15 14 15 15 14 13 13 14 13 13 13 13 13 14
2 2 3 3 3 1 2 -0 5 4 12 13 14 12 13 13 12 12 12 11 11 12 13 13 14 14 14 14 14 14 15 14 14 14 14 15 15 13 12 12 11 12 12 13
0 2 2 6 4 5 3 -2 6 13 13 12 12 13 13 12 12 12 11 11 11 11 11 12 13 13 13 13 13 14 14 14 14 14 14 14 14 14 13 12 11 12 13 13
-2 1 4 5 6 5 2 -1 0 8 12 12 13 12 12 11 10 9 11 11 11 11 11 11 11 11 12 12 12 13 13 13 13 13 13 13 14 13 12 12 11 12 13 13
-4 -2 1 3 4 8 6 2 3 7 6 12 12 12 10 10 11 8 9 11 9 9 11 10 9 9 8 8 7 8 8 8 9 9 9 10 11 12 13 13 12 11 10 12
1 0 -0 3 3 3 1 3 3 3 3 12 12 11 10 10 10 7 8 8 7 8 9 11 9 8 7 7 6 5 4 3 2 2 1 2 4 4 4 4 4 5 7 9
4 1 2 1 1 0 3 2 1 2 4 12 11 9 10 8 8 7 7 6 6 6 7 7 6 5 4 3 1 -1 -1 -2 -2 -2 -2 -2 -3 -2 -2 -1 1 2 6 7
4 2 5 4 3 2 3 3 5 6 6 10 11 9 8 8 8 7 6 6 5 5 5 5 4 2 1 0 -1 -2 -3 -2 -3 -4 -4 -4 -3 -3 -2 -2 -2 -1 2 4
2 2 5 4 4 3 3 6 6 7 7 10 10 9 8 7 6 7 7 6 5 5 4 3 3 3 2 1 -1 -4 -7 -9 -10 -10 -8 -5 -2 -2 -1 -0 -0 -1 -1 0
3 2 3 4 3 2 2 6 7 7 7 9 9 9 8 7 6 7 7 6 5 4 3 3 3 2 1 -1 -5 -8 -10 -8 -8 -9 -8 -8 -7 -6 -5 -4 -4 -2 -1 -1
4 2 4 5 3 3 2 3 6 7 6 7 8 8 7 7 6 6 6 6 6 4 3 3 3 1 -2 -5 -8 -9 -8 -7 -8 -8 -9 -9 -10 -11 -11 -11 -11 -10 -10 -9

GFSCGP_850_dewp_105.txt.gz
Dewpoint
-0 5 9 7 0 1 9 9 15 17 16 16 16 16 16 15 14 14 14 14 14 14 14 15 15 13 12 13 14 14 14 13 13 12 13 13 14 13 12 14 14 13 13 13
0 5 5 1 -1 0 12 15 16 15 15 15 16 16 16 16 15 14 14 14 13 14 14 15 13 13 13 13 14 14 13 13 13 13 13 13 14 14 13 13 14 14 13 13
-1 1 2 0 -1 1 3 9 15 15 15 15 15 17 16 15 14 14 13 13 13 13 14 15 13 13 13 13 13 14 13 13 13 13 13 14 14 14 14 14 14 14 13 13
4 -1 2 -1 -0 -0 4 1 13 14 14 15 13 17 16 15 15 15 13 13 13 13 14 14 13 13 12 12 13 13 14 14 14 13 13 13 13 13 13 14 14 14 14 12
2 0 0 -1 -1 -1 1 1 13 13 14 14 15 16 15 16 16 15 14 13 12 13 13 14 14 12 12 13 13 12 13 13 14 14 13 13 13 14 13 14 14 14 14 13
-1 -3 -2 -1 -2 -1 8 10 13 13 14 15 14 15 16 17 16 15 14 13 12 12 13 14 12 13 13 13 13 12 12 12 13 14 14 13 13 14 13 14 14 14 14 14
-1 -2 -4 -5 -3 -2 6 9 12 13 14 11 11 15 11 14 13 14 13 13 13 12 13 14 14 14 12 13 12 12 12 12 12 13 13 13 13 14 14 14 14 13 14 13
1 0 -2 -4 -3 -2 4 5 7 12 12 11 13 15 12 13 12 13 13 13 13 13 13 14 14 12 12 12 12 13 13 12 12 13 13 12 13 14 14 13 14 14 14 14
1 0 -1 -4 -4 -4 -2 -0 1 7 9 11 14 13 12 14 14 13 13 14 13 12 13 14 14 14 12 12 12 13 13 13 12 13 13 13 12 14 14 14 14 14 15 15
-0 1 -1 -1 -5 -3 -3 -4 0 4 10 10 14 14 14 16 14 13 14 14 13 12 13 13 12 14 13 12 13 13 13 13 13 13 13 13 12 13 14 13 13 14 15 14
0 1 1 0 -1 -2 -1 -0 1 2 5 8 11 13 13 14 15 15 15 14 14 13 13 12 12 13 13 13 13 13 13 13 13 13 13 13 13 12 12 13 14 15 14 14
-1 2 3 2 -1 -2 0 -2 0 1 7 9 11 12 14 13 14 14 15 16 15 14 14 12 12 12 13 13 13 14 14 13 13 13 13 14 14 13 13 13 14 15 14 15
-1 2 4 3 -2 -2 -1 -3 1 4 6 9 6 10 14 15 15 15 15 15 16 15 14 14 13 13 13 13 13 14 13 13 14 14 14 13 14 14 12 13 13 14 13 12
-1 1 4 3 2 1 0 -2 0 3 2 6 6 13 15 15 15 15 15 15 15 15 14 15 15 15 15 14 14 15 15 15 14 15 14 14 14 14 14 13 11 11 11 12
-1 2 1 -0 -1 -1 1 6 -0 1 2 5 8 13 14 14 13 14 14 14 14 15 15 15 15 15 15 15 13 14 15 14 14 14 15 14 14 14 15 14 13 12 12 12
-1 4 2 2 1 -3 -1 5 5 6 6 9 9 12 12 13 13 14 14 14 13 14 14 14 15 15 15 14 13 13 12 13 14 15 15 15 15 14 14 13 13 13 13 13
3 5 5 3 3 2 1 1 9 10 10 11 11 12 13 13 13 13 13 13 13 13 14 14 14 15 14 13 12 13 14 13 15 15 15 15 14 14 14 13 13 11 12 12
3 5 4 6 4 5 2 -1 5 11 12 12 12 12 13 12 12 12 12 12 12 12 13 13 14 14 14 15 15 15 15 15 15 14 14 15 15 14 12 13 13 10 11 12
0 3 4 3 5 5 2 1 2 5 7 12 12 12 12 12 12 12 12 12 12 12 12 13 13 13 13 13 14 14 14 14 14 14 14 14 14 14 14 13 13 13 12 13
-2 2 1 4 4 6 6 2 2 6 6 12 11 12 12 11 13 10 10 10 11 12 12 12 12 12 12 12 12 12 12 12 12 12 13 13 13 13 12 12 12 12 11 12
2 2 2 4 4 2 2 3 3 4 5 9 12 12 11 12 11 9 10 11 11 11 10 10 9 8 7 7 6 5 5 6 6 6 7 8 8 8 8 8 8 9 10 11
5 3 2 2 3 2 4 4 5 5 6 9 12 11 12 10 9 9 10 10 11 10 9 9 8 7 6 4 3 1 -0 -0 -0 -0 -1 -1 -1 -1 -0 1 2 5 9 10
5 4 6 4 4 5 5 5 5 6 6 9 11 11 10 9 9 10 9 9 11 11 10 8 7 4 2 1 1 -1 -3 -3 -4 -4 -3 -2 -3 -2 -2 -2 -1 3 6 6
4 4 6 6 5 4 4 5 7 8 8 9 10 9 9 9 9 8 7 8 9 9 7 5 4 2 1 1 -1 -3 -5 -6 -6 -6 -6 -4 -3 -2 -1 -0 -0 -0 -0 0
4 4 5 5 5 4 4 5 6 6 8 9 10 9 9 9 8 7 6 6 5 5 5 4 3 3 2 -0 -4 -7 -9 -9 -8 -8 -7 -7 -5 -5 -3 -2 -2 -2 -2 -2
4 4 7 6 5 5 5 3 5 6 7 8 9 9 8 8 8 7 8 8 8 7 5 3 3 2 0 -3 -7 -9 -8 -7 -7 -7 -7 -8 -9 -10 -10 -10 -11 -11 -12 -13

GFSCGP_850_dewp_111.txt.gz
Dewpoint
-7 -5 3 7 6 5 10 12 16 15 16 16 16 16 14 14 14 11 10 10 11 11 11 11 11 11 12 14 14 14 15 16 16 15 14 14 14 14 14 15 16 15 16 15
-7 -5 -3 4 6 4 6 16 16 15 16 15 16 17 15 15 14 13 11 10 11 11 11 11 11 11 12 13 15 15 16 16 15 15 14 14 14 14 15 15 16 16 16 16
-5 -7 -6 2 8 5 4 14 16 16 16 15 15 17 16 14 14 13 11 10 10 11 11 11 13 11 12 13 14 15 16 16 15 15 15 15 16 15 15 16 15 16 16 16
-6 -9 -6 2 6 4 6 10 14 15 15 16 13 18 16 15 15 14 14 11 10 11 11 11 12 13 12 13 13 16 16 16 16 16 16 16 14 14 15 15 15 16 16 16
-6 -7 -4 4 5 3 6 3 16 12 12 13 14 16 16 15 15 14 13 12 11 10 11 11 12 13 13 13 13 14 15 16 16 16 15 16 15 15 15 15 15 16 17 16
-6 -6 -4 -0 2 2 2 4 8 10 10 13 13 13 16 17 15 13 13 13 11 12 10 12 12 13 13 12 12 14 15 16 17 17 16 14 15 16 15 15 16 15 16 16
-3 -2 -3 -2 1 0 3 6 14 16 14 13 11 12 12 13 11 11 12 13 12 13 10 11 12 13 12 12 11 13 15 16 16 16 16 16 17 16 17 16 15 15 14 15
-3 -0 -1 -3 -1 1 4 5 14 15 14 13 9 11 14 9 10 11 10 12 12 10 11 11 11 12 12 12 12 12 15 16 16 16 16 16 17 16 16 15 16 14 15 14
-5 -3 -4 -4 -5 -2 1 6 6 11 7 11 12 9 12 10 10 11 11 12 12 12 10 10 10 13 12 13 13 13 16 16 16 15 16 16 16 16 16 16 16 16 16 14
-3 -2 -5 -5 -5 -6 -4 -1 4 6 10 12 14 14 9 13 12 11 11 11 11 12 12 11 9 10 13 12 13 14 15 16 16 15 15 16 16 16 16 17 14 15 16 16
-4 -3 -4 -6 -4 -3 -4 -3 0 1 3 8 11 13 11 12 12 12 11 11 12 12 12 11 10 11 12 13 13 14 15 16 16 16 16 15 15 15 15 16 16 17 16 14
-5 -3 -2 -2 -6 -7 -7 -5 -4 -1 3 1 1 12 8 10 11 11 11 11 11 12 12 11 11 13 14 15 16 16 15 16 17 16 16 16 16 15 14 15 16 16 16 17
-1 -2 0 -2 -4 -6 -7 -7 -6 -7 -5 -1 1 11 12 11 12 12 12 11 11 12 13 14 14 15 16 16 17 16 16 16 17 17 17 16 16 16 15 15 15 16 17 17
-2 -2 1 3 5 2 -1 -5 -5 -6 -4 -3 -3 13 13 13 14 14 14 13 13 13 14 14 14 14 16 16 15 16 16 16 15 16 16 16 17 17 16 15 15 15 16 17
-2 0 -1 -1 1 2 -1 -5 -6 -3 -3 -1 -3 -2 9 12 13 14 14 15 15 16 15 14 16 17 16 14 13 13 14 13 13 13 14 15 16 16 16 16 16 15 15 16
-3 -0 -1 3 0 1 -1 -2 -3 -5 -5 -4 -4 -1 5 11 13 14 15 16 16 16 17 17 17 16 17 17 14 14 14 13 13 13 14 14 14 16 17 16 15 16 16 16
-1 -0 4 3 -2 -2 2 -2 -2 -2 -4 -5 0 9 4 14 14 14 15 15 15 16 15 16 16 17 17 17 16 16 15 15 13 14 14 14 16 16 15 15 16 16 16 17
-0 1 2 4 6 7 1 0 1 2 5 4 5 8 10 12 13 14 14 15 15 15 14 15 15 15 17 16 16 16 16 15 15 14 15 15 15 15 15 15 15 15 15 15
-3 1 2 3 9 7 7 2 2 3 8 7 7 9 12 13 13 13 13 14 14 14 13 14 15 15 15 15 15 15 14 13 14 15 15 15 15 15 14 14 14 12 12 13
-1 -0 2 4 6 10 10 8 2 1 8 7 8 9 12 12 12 13 13 14 13 13 12 14 14 14 14 14 14 13 13 13 14 15 15 14 14 15 14 14 14 13 13 12
2 3 1 1 6 7 6 5 3 5 9 5 8 11 12 11 13 13 13 13 12 11 13 13 13 13 13 13 13 14 14 14 14 14 14 14 14 13 13 13 13 13 13 12
3 5 2 2 8 9 3 2 7 8 6 6 8 11 12 12 13 13 12 12 12 12 12 12 12 12 11 11 12 12 12 12 12 12 12 12 12 11 12 13 13 12 12 13
0 -1 7 3 8 4 3 4 4 6 7 8 7 10 11 12 12 11 12 11 10 10 10 9 9 9 7 6 6 8 8 8 7 7 8 7 8 8 10 10 11 12 12 11
0 1 0 3 3 3 3 4 5 5 7 8 8 9 10 11 12 12 11 11 10 9 9 8 7 5 3 2 0 1 2 3 3 3 3 3 4 6 8 8 8 8 8 8
1 3 0 1 3 4 4 5 4 5 7 8 10 10 11 11 11 11 10 10 9 8 7 7 6 6 2 4 1 1 1 3 5 6 6 5 4 6 3 4 4 5 6 5
-0 0 2 3 5 5 6 5 4 4 6 7 9 10 11 11 11 11 10 9 8 7 6 4 3 4 3 2 1 3 4 4 4 4 3 2 3 3 3 0 -1 -1 -1 0

GFSCGP_850_dewp_114.txt.gz
Dewpoint
-3 -3 -3 0 7 8 9 13 16 16 16 16 16 15 15 14 14 11 8 8 11 10 10 10 11 13 13 13 15 13 15 14 13 14 13 13 15 15 15 15 14 15 13 15
-6 -5 -6 -2 5 9 8 12 16 16 16 15 15 16 15 14 15 13 9 10 11 10 11 10 11 13 13 13 13 14 15 13 13 14 15 15 15 15 15 16 14 16 14 12
-5 -7 -9 -5 4 9 9 10 15 16 16 15 15 16 15 13 15 15 14 11 11 11 12 11 11 12 14 14 14 15 15 13 15 16 16 14 14 15 15 15 15 14 15 14
-7 -8 -8 -6 4 8 8 14 15 17 16 17 14 17 16 14 15 15 15 12 12 11 11 11 11 11 12 14 15 14 16 13 15 15 15 15 15 16 15 16 15 16 15 14
-10 -7 -7 -6 -3 7 9 9 15 15 16 15 16 16 17 14 15 15 14 12 12 13 10 12 10 12 12 12 15 15 13 14 15 15 15 15 15 14 15 15 15 16 14 15
-10 -9 -8 -7 -1 2 5 11 11 14 16 18 15 14 15 16 14 12 13 13 12 11 11 11 13 9 13 12 14 15 12 14 15 14 15 16 16 15 16 15 15 14 14 14
-9 -5 -6 -5 -2 3 4 7 15 17 17 17 13 14 14 14 12 11 12 13 12 12 12 11 13 13 13 13 14 15 14 13 14 15 15 14 15 13 15 15 14 16 15 15
-5 -2 -3 -4 -2 4 2 3 11 14 16 15 13 15 15 11 10 11 10 12 11 11 12 12 11 13 12 14 14 14 14 12 13 15 15 15 16 17 16 14 16 14 16 15
-2 -7 -6 -4 -3 -2 1 4 3 10 15 14 15 16 11 11 10 11 11 11 12 13 9 12 14 13 13 14 13 14 14 12 15 16 15 15 16 15 16 16 12 14 15 16
-3 0 -7 -4 -5 -5 -2 -2 3 10 15 14 16 16 18 13 12 11 11 11 12 12 13 11 11 12 11 12 13 14 14 13 14 15 15 14 15 14 16 15 15 17 16 13
-3 -2 -4 -4 -4 -4 -5 -3 -2 -0 7 14 14 13 14 14 14 13 12 11 11 9 10 12 12 13 12 13 13 15 15 13 14 16 14 15 14 14 15 15 15 15 15 12
-5 -4 -1 -2 -6 -7 -6 -5 -6 -1 3 3 6 7 10 13 13 11 12 11 12 11 12 12 12 13 11 12 13 16 14 13 14 14 14 15 14 15 15 15 15 16 16 14
-0 -1 -1 -1 -4 -4 -5 -6 -6 -7 -5 2 1 12 11 11 12 11 11 12 12 11 11 12 10 15 14 13 13 14 11 16 14 15 16 15 15 15 14 15 14 15 16 15
-3 -1 0 3 4 3 4 1 -8 -7 -4 -4 -4 10 8 7 12 11 11 12 12 12 13 12 15 14 13 13 16 14 17 17 17 16 16 16 16 16 15 15 14 14 15 15
-4 -0 -1 -2 0 0 2 3 0 -6 -4 -3 -5 8 10 10 11 12 12 12 14 14 14 12 15 16 16 16 15 16 15 15 15 16 15 15 16 15 15 16 15 14 15 14
-3 -0 -2 -1 -2 1 1 1 0 -4 -7 -6 -5 -2 7 13 12 12 14 15 16 14 14 15 15 16 15 14 13 13 14 14 13 13 13 14 15 15 15 15 16 16 15 15
5 2 4 4 0 2 2 1 1 -1 -5 -2 -1 13 11 10 10 9 15 15 17 16 17 16 17 17 17 15 13 13 12 14 14 14 13 12 12 13 14 14 15 16 16 16
1 1 2 5 7 10 5 4 5 6 9 8 11 13 14 10 7 13 15 15 16 16 16 16 16 17 16 16 16 16 15 15 15 14 13 14 14 16 16 16 16 15 15 14
-3 1 1 7 11 8 3 5 5 6 8 7 10 14 8 14 14 14 15 15 15 15 15 14 15 16 16 17 17 16 16 16 16 15 14 14 14 14 14 14 15 15 15 15
-2 1 2 4 7 12 10 5 5 4 10 6 7 12 11 13 15 14 14 14 14 13 13 14 15 15 15 16 16 15 15 15 14 14 15 14 14 14 15 12 14 14 13 12
6 5 2 2 7 11 7 6 5 9 11 6 7 12 10 13 13 14 13 13 13 12 13 13 14 14 15 15 15 15 14 13 14 15 14 15 14 14 14 14 14 13 12 13
8 10 6 5 5 8 6 9 11 8 6 7 6 12 12 13 13 13 13 12 12 12 12 13 13 13 13 13 13 13 13 14 14 13 14 14 13 13 13 13 13 13 13 13
1 2 4 9 9 4 3 4 4 4 6 6 6 11 9 12 13 13 11 11 11 11 11 11 12 11 11 11 12 12 12 12 12 12 12 12 12 12 12 13 13 12 13 13
-2 -1 0 0 3 3 3 3 4 5 5 5 7 9 11 12 12 12 11 10 9 9 9 8 7 7 5 4 5 7 8 7 8 8 8 8 8 9 9 10 11 11 11 10
2 4 1 0 2 4 3 4 3 4 5 6 8 10 11 12 12 11 10 9 9 8 8 7 6 3 2 1 1 1 1 1 1 3 3 3 4 6 8 8 8 9 9 8
-1 -0 1 4 5 6 6 5 4 3 4 5 7 11 11 12 11 11 10 10 9 8 7 6 5 4 4 1 -1 -0 4 5 3 1 2 5 6 5 4 6 5 3 7 7

GFSCGP_850_dewp_117.txt.gz
Dewpoint
-3 -2 -1 -2 -1 1 11 15 17 16 16 16 16 15 14 13 14 14 11 8 10 10 10 10 13 13 13 14 14 13 13 13 14 14 15 14 14 14 14 15 14 12 14 14
-2 -1 -2 -4 7 10 12 15 16 16 15 15 15 15 14 14 14 15 14 10 10 10 10 13 13 13 12 14 14 13 13 11 13 14 14 14 14 15 14 15 14 13 13 14
-3 -4 -5 -6 0 11 13 14 16 16 16 15 15 15 15 14 14 13 14 13 10 10 10 13 13 13 11 14 13 13 13 12 14 14 14 15 15 15 15 15 14 15 14 14
-6 -7 -7 -7 -5 5 15 15 15 16 16 17 15 17 16 14 14 13 14 14 11 11 10 13 13 13 11 12 12 12 14 13 15 15 15 14 14 14 15 15 14 13 12 13
-9 -8 -7 -6 -6 10 14 14 14 14 15 16 16 17 16 15 15 14 14 14 13 11 9 11 13 12 12 12 12 13 13 12 15 15 15 14 14 15 15 15 14 14 13 14
-11 -12 -9 -6 -3 8 12 14 14 15 16 17 15 16 17 16 14 13 13 13 13 13 11 12 12 13 13 13 14 12 12 11 15 14 15 14 14 14 15 15 15 15 13 14
-9 -10 -8 -8 8 8 11 12 15 16 18 18 15 16 16 14 12 11 11 12 13 13 12 11 12 13 13 14 14 14 12 13 13 14 15 15 14 15 15 16 14 13 14 15
-4 -5 -4 -5 -3 8 12 11 14 15 17 17 15 17 15 11 11 10 11 11 13 13 12 12 11 12 13 15 15 14 13 11 12 13 13 13 14 12 15 15 14 16 16 14
-1 -2 -6 -4 -4 0 4 5 2 14 14 15 16 15 14 11 12 10 11 12 13 13 12 12 12 11 14 13 14 15 14 13 10 12 14 13 13 15 15 15 13 15 15 15
-2 2 -2 -4 -5 -4 -2 -1 7 12 15 16 16 15 15 14 12 12 10 11 12 12 11 12 13 13 13 13 13 15 14 13 11 8 12 13 14 14 14 15 15 13 15 16
-3 -0 0 -3 -2 -2 -3 -2 -2 5 10 14 14 16 14 13 13 14 12 10 11 13 12 11 12 12 13 11 14 15 15 14 11 8 11 13 12 13 14 14 15 14 14 14
-0 -1 -0 -2 -4 -5 -4 -3 -3 -0 1 8 12 11 11 12 13 11 12 12 11 12 12 11 12 14 12 12 12 14 15 14 12 12 14 12 13 12 13 14 14 14 14 13
-0 3 3 1 2 2 1 -1 -3 -3 -5 -1 3 13 12 12 11 6 10 12 11 11 11 10 9 12 13 13 12 15 14 13 13 14 15 14 15 13 14 13 13 13 14 14
-3 -0 2 4 3 3 4 2 2 2 -2 -1 -2 12 11 11 12 11 12 13 12 12 11 11 12 14 14 13 13 16 15 12 13 13 15 14 15 14 15 15 15 14 12 15
-2 1 1 -0 -1 -0 2 1 1 4 10 5 5 10 13 14 14 14 14 13 13 13 12 13 13 14 13 12 16 15 14 12 14 13 15 15 15 14 15 15 15 15 15 13
2 5 5 4 2 3 3 4 4 8 10 12 9 15 13 14 13 13 15 16 14 14 15 15 15 15 14 14 13 10 15 15 14 13 15 15 15 15 15 15 15 16 15 16
4 5 6 5 5 4 7 6 6 7 9 11 15 13 10 11 11 9 13 14 16 16 16 15 16 16 15 14 13 10 15 15 15 14 14 14 13 13 13 15 15 14 14 16
3 6 5 6 5 7 9 5 5 7 8 11 13 14 10 9 9 8 12 16 16 15 16 16 15 15 16 15 15 14 15 15 14 13 13 13 13 13 13 14 14 14 15 15
1 4 5 9 10 8 7 7 7 7 11 8 12 13 13 13 14 15 15 15 15 15 15 15 16 16 16 16 15 14 14 14 15 15 14 13 13 14 14 16 15 15 14 16
5 4 6 6 7 10 8 7 7 5 13 9 11 11 10 10 14 15 15 15 14 14 14 14 15 16 15 16 16 16 16 15 15 15 15 14 13 13 14 13 14 15 14 14
7 7 7 6 9 10 8 7 6 8 12 7 10 11 10 11 14 13 14 13 13 13 13 13 14 14 16 16 16 16 15 15 16 15 15 15 14 14 14 14 13 13 13 13
6 7 9 8 8 11 6 7 7 8 6 7 10 11 11 13 14 13 13 12 12 12 13 13 13 14 14 15 15 15 15 15 14 14 15 14 14 14 14 13 14 14 13 13
7 6 8 9 9 7 6 5 6 4 5 6 11 9 7 10 12 12 12 11 12 12 12 12 12 13 13 13 13 14 13 13 13 14 14 14 14 14 13 13 13 13 13 13
6 3 4 8 7 8 5 4 5 5 5 7 10 11 11 10 12 12 11 11 11 11 11 11 11 11 12 12 12 12 12 12 12 12 13 12 13 12 12 12 12 12 12 11
6 4 4 3 7 6 4 3 3 4 5 6 10 11 11 11 12 11 11 10 9 8 7 6 6 5 5 5 6 7 8 8 8 8 8 9 10 11 11 11 11 11 11 10
2 6 6 9 7 6 6 5 3 3 3 4 8 9 11 11 11 10 10 9 9 8 7 7 4 2 1 1 1 2 2 1 1 2 1 4 5 7 8 8 8 9 9 9

GFSCGP_850_dewp_123.txt.gz
Dewpoint
-5 -2 -1 -1 -2 5 13 15 16 16 14 14 15 15 15 14 14 13 13 12 13 14 13 12 12 13 13 13 13 13 12 13 14 14 14 14 13 13 13 13 11 13 12 12
-4 -1 -3 -4 -3 7 13 16 16 15 15 15 15 15 15 14 14 14 14 11 13 14 14 13 13 14 13 12 11 12 12 13 14 15 14 14 13 13 13 13 13 11 13 13
-2 -2 -3 -3 -1 12 13 15 15 16 15 15 15 15 15 15 14 14 13 13 12 12 13 13 13 13 13 12 11 11 10 11 14 14 14 14 14 14 14 14 13 11 12 13
-3 -4 -3 -2 -1 7 13 13 14 15 16 17 15 17 15 15 15 14 13 14 11 13 12 13 13 14 13 12 12 12 12 12 12 14 14 14 14 14 14 13 13 12 12 13
-6 -7 -4 -3 -3 7 13 13 14 14 15 15 15 17 14 15 15 14 13 13 12 13 14 13 13 13 13 13 12 12 12 11 13 14 14 14 14 14 13 14 13 15 13 13
-6 -8 -9 -5 3 7 12 13 14 14 14 15 15 16 15 15 14 14 13 13 14 13 14 14 13 13 13 13 13 12 12 11 11 13 14 14 14 14 14 14 14 13 14 14
-5 -8 10 11 13 12 12 12 14 14 16 15 15 16 15 13 13 12 13 13 13 13 14 14 13 13 13 12 13 12 12 13 12 12 13 14 14 14 14 14 14 15 15 14
-3 -3 12 9 11 13 12 10 12 13 15 15 15 17 13 10 11 10 11 11 13 13 14 14 13 13 13 11 12 12 12 13 13 12 13 14 14 14 14 15 14 14 14 13
-2 -1 -4 8 8 10 12 11 8 13 13 14 15 14 12 11 11 11 11 12 13 13 13 13 13 13 12 12 11 12 12 13 13 12 12 13 13 13 12 14 15 15 13 14
-3 0 -2 -1 7 7 8 7 10 11 14 15 15 15 14 12 12 12 11 13 13 13 13 13 13 13 12 12 12 12 12 11 12 11 12 12 13 14 13 14 14 14 13 14
-2 -2 -1 -4 -2 7 -2 -1 2 7 11 13 14 13 11 11 12 13 12 13 13 13 12 13 13 13 13 13 12 12 13 12 12 12 12 13 13 13 13 13 14 14 13 14
-2 -1 2 -2 -3 -2 -2 -1 -4 -1 -2 9 11 8 11 10 12 11 11 12 13 13 13 13 13 13 13 13 13 13 13 13 13 13 12 11 14 13 14 14 13 14 14 14
-3 2 4 6 4 1 2 2 1 -2 -2 2 4 2 12 12 12 11 11 11 12 13 12 12 12 12 12 13 13 13 13 13 13 13 13 11 12 13 14 14 14 14 14 13
-2 -1 1 2 2 3 8 9 9 6 9 8 6 13 13 14 14 13 13 11 11 11 11 11 10 12 12 12 12 13 13 13 13 14 14 13 11 12 13 12 14 15 13 14
-2 2 3 2 6 7 9 9 10 10 11 13 14 13 12 12 14 15 16 14 12 11 11 11 11 10 12 12 12 13 13 14 14 15 14 13 12 13 14 14 14 14 14 15
-0 1 2 5 6 7 9 9 10 11 13 14 13 13 11 12 14 14 15 16 14 13 13 12 11 11 12 12 12 13 13 13 14 14 15 12 13 15 15 15 14 14 14 14
1 1 3 4 4 5 8 8 10 11 12 13 13 13 12 14 14 14 15 15 15 15 15 15 13 13 12 12 13 12 12 14 14 14 15 13 12 13 14 14 13 13 14 14
2 3 3 4 2 6 7 6 8 11 12 12 13 13 13 14 14 13 14 14 15 15 15 15 15 14 13 13 14 14 14 15 15 14 14 13 14 14 14 13 12 11 12 13
1 3 5 6 7 7 7 6 7 9 10 10 11 11 10 13 13 13 14 14 14 14 15 16 16 15 15 14 15 15 15 15 14 14 12 13 14 14 14 13 12 14 13 13
1 2 4 6 6 7 5 6 6 6 10 8 10 10 10 10 9 12 13 13 12 13 14 15 15 14 15 15 13 13 16 15 15 15 14 13 12 14 14 14 14 14 13 14
2 6 6 8 8 8 6 6 6 8 7 7 9 11 11 10 11 12 13 12 12 13 13 14 15 15 14 15 13 13 13 13 14 15 15 15 15 15 13 14 14 13 14 14
1 5 6 6 7 6 6 7 7 6 8 8 10 11 12 12 12 12 12 12 12 12 13 13 14 14 15 15 15 13 13 15 15 15 15 15 14 14 13 13 13 13 14 14
3 4 5 5 6 4 7 5 7 7 8 9 9 11 11 13 12 12 12 11 11 12 12 12 13 14 14 15 14 15 14 14 14 15 14 14 14 14 14 14 13 13 13 13
4 3 5 3 3 5 6 5 7 7 6 6 7 9 10 9 11 11 11 10 11 11 11 12 12 13 13 14 14 14 14 14 14 14 14 14 14 14 14 14 14 13 13 13
4 2 5 5 6 6 7 5 7 8 5 4 5 7 9 9 10 10 10 10 10 10 11 11 12 12 12 12 13 13 13 13 13 13 13 13 13 13 13 13 13 13 13 12
3 3 5 7 4 5 5 5 5 6 6 5 4 4 4 6 8 10 9 9 9 8 8 8 9 10 10 10 10 11 11 11 12 12 12 12 12 12 12 12 12 12 11 10